Regional Weather Roundup
Issued by NWS

Home | Current Version | Previous Version | Graphics & Text | Print | Product List | Glossary Off
Versions: 1 2 3 4 5 6 7 8 9 10 11 12 13 14 15 16 17 18 19 20 21 22 23 24 25 26 27 28 29 30 31 32 33 34 35 36 37 38 39 40 41 42 43 44 45 46 47 48 49 50

000
ASUS43 KMPX 160710
RWRMN
WEATHER ROUNDUP FOR MINNESOTA
NATIONAL WEATHER SERVICE TWIN CITIES/CHANHASSEN MN
200 AM CDT TUE SEP 16 2014


NOTE: "FAIR" INDICATES FEW OR NO CLOUDS BELOW 12,000 FEET WITH NO
SIGNIFICANT WEATHER AND/OR OBSTRUCTIONS TO VISIBILITY. N/A MEANS
CURRENT SKY AND/OR WEATHER CONDITIONS ARE NOT AVAILABLE.

MNZ060>063-068>070-160800-
   Twin Cities Metro

CITY           SKY/WX    TMP DP  RH WIND       PRES   REMARKS
TWIN CITIES    CLEAR     47  41  80 SW3       30.21S
ST PAUL        CLEAR     43  42  97 CALM      30.22S
CRYSTAL        CLEAR     45  40  82 CALM      30.19F
BLAINE         CLEAR     43  43 100 S3        30.20S
LAKEVILLE      CLEAR     37  37 100 CALM      30.22S
EDEN PRAIRIE   CLEAR     44  42  93 SW5       30.21S
SOUTH ST PAUL  CLEAR     43  40  89 CALM      30.22S
LAKE ELMO      FAIR      37  36  93 CALM      30.22S
$$
MNZ001>005-007-008-013>017-022>024-027-028-160800-
   Northwest Minnesota

CITY           SKY/WX    TMP DP  RH WIND       PRES   REMARKS
BEMIDJI        CLEAR     46  37  73 SW6       30.10S
HALLOCK        CLEAR     41  37  87 S7        30.02S
ROSEAU         CLEAR     43  37  81 S8        30.02S
WARROAD        CLEAR     45  41  87 SW7       30.02S
THIEF RVR FALL CLEAR     46  39  76 SW9       30.07S
CROOKSTON      CLEAR     41  39  93 S7        30.09S
FOSSTON        CLEAR     39  36  87 S8        30.11S
DETROIT LAKES  CLEAR     50  37  62 SW9       30.14S
MOORHEAD       CLEAR     46  43  87 S7        30.14S
PARK RAPIDS    CLEAR     43  38  82 SW7       30.13S
MAHNOMEN       FAIR      41  37  84 S8        30.11S
$$
MNZ006-009>011-018-025>026-160800-
   North Central Minnesota

CITY           SKY/WX    TMP DP  RH WIND       PRES   REMARKS
BAUDETTE       PTCLDY    44  39  82 SW5       30.03R
FLAG ISLAND    CLEAR     48  41  76 SW14      29.97S
INTL FALLS     CLEAR     39  36  89 SW7       30.03S
WASKISH        CLEAR     52  45  76 SW9       30.06S
BIG FORK       CLEAR     41  39  93 SW7       30.08F
LONGVILLE      CLEAR     46  39  76 SW7       30.12S
GRAND RAPIDS   CLEAR     46  36  66 SW8       30.11S
CRANE LAKE     PTCLDY    41  37  87 S5        30.06F
ORR            CLEAR     43  36  75 S5        30.04S
COOK           PTCLDY    45  37  76 SW7       30.07F
WALKER         FAIR      47  38  70 SW5       30.11F
$$
MNZ012-019>021-037-160800-
   Northeast Minnesota

CITY           SKY/WX    TMP DP  RH WIND       PRES   REMARKS
DULUTH         CLEAR     46  35  65 W12       30.12F
ELY            PTCLDY    43  36  75 SW6       30.08S
HIBBING        CLEAR     32  29  88 CALM      30.10F
EVELETH        CLEAR     39  34  81 SW5       30.11F
DULUTH HARBOR  CLEAR     46  39  76 SW12      30.14S
TWO HARBORS    CLEAR     43  34  70 W6        30.10S
SILVER BAY     PTCLDY    34  34 100 CALM      30.09F
GRAND MARAIS     N/A     50  36  58 VRB7      30.07S
G MARAIS ARPRT PTCLDY    39  32  75 W3        30.08S
$$
MNZ029>031-032-039>041-046>048-054>057-064-160800-
   West Central Minnesota

CITY           SKY/WX    TMP DP  RH WIND       PRES   REMARKS
FERGUS FALLS   CLEAR     43  34  70 S7        30.17F
WHEATON        CLEAR     41  36  81 S8        30.19F
MORRIS         CLEAR     39  36  87 S6        30.19R
ALEXANDRIA     CLEAR     45  36  70 SW9       30.19F
ELBOW LAKE     FAIR      39  35  86 S8        30.17S
WADENA         CLEAR     41  36  81 SW5       30.15S
GLENWOOD       CLEAR     39  36  87 SW5       30.20S
APPLETON       CLEAR     43  37  81 CALM      30.20S
BENSON         CLEAR     39  37  93 SW3       30.21R
ORTONVILLE     CLEAR     43  36  75 CALM      30.19F
MADISON        CLEAR     43  39  87 SW7       30.21S
WILLMAR        FAIR      43  37  81 CALM      30.23S
$$
MNZ033>034-036-042>043-049>051-058-059-160800-
   Central Minnesota

CITY           SKY/WX    TMP DP  RH WIND       PRES   REMARKS
ST CLOUD       CLEAR     43  39  86 CALM      30.19S
SAUK CENTRE    FAIR      40  35  82 CALM      30.20R
PAYNESVILLE    CLEAR     35  34  99 CALM      30.21S
AITKIN         CLEAR     41  36  81 CALM      30.13F
PINE RIVER     CLEAR     45  36  70 SW5       30.17S
BRAINERD       CLEAR     40  35  83 SW6       30.16S
STAPLES        CLEAR     45  36  70 SW7       30.16S
LONG PRAIRIE   FAIR      41  36  81 S6        30.19S
LITTLE FALLS   CLEAR     39  36  87 CALM      30.18S
LITCHFIELD     CLEAR     45  43  93 CALM      30.22S
BUFFALO        CLEAR     41  39  90 CALM      30.21F
MAPLE LAKE     CLEAR     40  40  98 CALM      30.21S
$$
MNZ037-044-045-052-053-160800-
   East Central Minnesota

CITY           SKY/WX    TMP DP  RH WIND       PRES   REMARKS
PRINCETON      CLEAR     37  36  93 SW2       30.20R
MORA           CLEAR     36  34  93 CALM      30.19S
CAMBRIDGE      CLEAR     43  36  75 CALM      30.17S
RUSH CITY      CLEAR     40  38  96 CALM      30.18F
MOOSE LAKE     CLEAR     34  34 100 SW5       30.14S WCI  30
HINCKLEY       FAIR      37  37 100 CALM      30.17S
CLOQUET        CLEAR     45  36  70 SW7       30.13S
MCGREGOR       CLEAR     41  37  87 SW3       30.15S
$$
MNZ071>073-080-081-089-090-097-098-160800-
   Southwest Minnesota

CITY           SKY/WX    TMP DP  RH WIND       PRES   REMARKS
MONTEVIDEO     CLEAR     43  36  75 SW6       30.22S
GRANITE FALLS  CLEAR     38  37  94 S6        30.23S
CANBY          CLEAR     46  38  75 SW5       30.22S
MARSHALL       CLEAR     43  37  81 SW9       30.21F
REDWOOD FALLS  CLEAR     42  37  82 SW8       30.22F
OLIVIA         CLEAR     41  36  81 SW5       30.21S
PIPESTONE      CLEAR     43  37  81 CALM      30.23S
WINDOM         CLEAR     41  39  93 CALM      30.24F
WORTHINGTON    CLEAR     39  36  87 SW5       30.25S
JACKSON        CLEAR     39  37  93 CALM      30.25S
TRACY          CLEAR     46  42  86 CALM      30.23F
SLAYTON        CLEAR     39  37  95 CALM      30.24F
$$
MNZ065>067-074>077-082>085-091>093-160800-
   South Central Minnesota

CITY           SKY/WX    TMP DP  RH WIND       PRES   REMARKS
MANKATO        CLEAR     43  36  75 SW5       30.23R
NEW ULM        CLEAR     39  39 100 CALM      30.23S
ST JAMES       CLEAR     43  39  87 SW5       30.25R
FAIRMONT       CLEAR     41  36  81 CALM      30.24S
GLENCOE        CLEAR     40  37  88 CALM      30.21S
FARIBAULT      CLEAR     41  36  81 CALM      30.23S
OWATONNA       CLEAR     39  37  93 CALM      30.23S
WASECA         CLEAR     36  32  87 CALM      30.25R
ALBERT LEA     CLEAR     41  41 100 CALM      30.24S
$$
MNZ078>079-086>088-094>096-160800-
   Southeast Minnesota

CITY           SKY/WX    TMP DP  RH WIND       PRES   REMARKS
ROCHESTER      CLEAR     41  37  86 SW6       30.23S
RED WING       PTCLDY    39  37  93 CALM      30.21S
STANTON        CLEAR     39  37  91 CALM      30.21S
DODGE CENTER   PTCLDY    39  39 100 W3        30.23S
WINONA         CLEAR     41  41 100 CALM      30.23S
AUSTIN           N/A     39  37  93 CALM      30.23S FOG
PRESTON        CLEAR     42  42 100 CALM      30.24R
$$
ABBREVIATIONS USED IN REMARKS
   TC - TEMPERATURES IN CELSIUS
  WCI - WIND CHILL INDEX
   HX - HEAT INDEX
  VSB - VISIBILITY
$$


USA.gov is the U.S. government's official web portal to all federal, state and local government web resources and services.